GENESIS 1

Last updated on Tue Oct 08 2024 00:02:10 GMT+0000 (Coordinated Universal Time)

1 29252U 06029A 24280.92338606 .00060762 00000+0 11874-2 0 9993 2 29252 64.5112 146.9869 0032586 306.8091 53.0057 15.46510073 7880
UTC large
Height (km)
Speed (km/s)
/
Latitude / Longitude
Inclination (degrees)
Orbital Period (minutes)
Azimuth
Elevation
Range (km)
Doppler Factor

Next 0 passes for location: London (51.5072 / 0.1276)

Sorry there are no passes over London.